DW7901 Weather Reports


Display with metric or nautical units.
time (UTC)temp
F
wind
direction
speed
MPH
gust
MPH
rain 1hr
in
rain 24hr
in
rain mn
in
humidity
%
barometer
mb
20260507100005 79 318 4.0 13.0 0.00 0.00 0.00 30 1012.7
20260507095004 80 227 8.0 15.0 0.00 0.00 0.00 30 1012.9
20260507094004 79 222 1.0 15.0 0.00 0.00 0.00 30 1012.7
20260507092004 80 223 4.0 13.0 0.00 0.00 0.00 30 1012.7
20260507091004 78 228 3.0 13.0 0.00 0.00 0.00 33 1012.7
20260507090005 77 296 5.0 15.0 0.00 0.00 0.00 33 1012.8
20260507085005 77 232 5.0 14.0 0.00 0.00 0.00 32 1012.5
20260507082004 76 193 3.0 15.0 0.00 0.00 0.00 35 1012.4
20260506212003 61 0 0.0 0.0 0.00 0.00 0.00 67 1010.4
20260506211005 62 225 0.0 2.0 0.00 0.00 0.00 65 1010.2
20260506210006 63 198 1.0 2.0 0.00 0.00 0.00 63 1010.2
20260506204005 64 204 2.0 3.0 0.00 0.00 0.00 62 1010.2
20260506203005 64 204 1.0 4.0 0.00 0.00 0.00 61 1010.1
20260506202005 65 213 1.0 2.0 0.00 0.00 0.00 60 1010.2
20260506201005 65 356 1.0 3.0 0.00 0.00 0.00 59 1010.3
20260506200006 66 319 1.0 4.0 0.00 0.00 0.00 57 1010.3
20260506195005 67 288 2.0 5.0 0.00 0.00 0.00 55 1010.2
20260506194005 68 225 2.0 4.0 0.00 0.00 0.00 52 1010.3
20260506193005 68 249 2.0 6.0 0.00 0.00 0.00 50 1010.2
20260506192005 68 242 2.0 10.0 0.00 0.00 0.00 48 1010.4
20260506191005 67 266 8.0 13.0 0.00 0.00 0.00 51 1010.1
20260506190006 67 177 2.0 5.0 0.00 0.00 0.00 51 1009.9
20260506185005 67 175 2.0 4.0 0.00 0.00 0.00 51 1009.7
20260506184005 68 167 1.0 4.0 0.00 0.00 0.00 50 1009.5
20260506183006 69 165 2.0 4.0 0.00 0.00 0.00 49 1009.4
20260506182005 69 155 3.0 4.0 0.00 0.00 0.00 48 1009.2
20260506181005 69 169 2.0 4.0 0.00 0.00 0.00 48 1009.4
20260506180006 69 164 2.0 5.0 0.00 0.00 0.00 48 1009.2
20260506175005 70 161 2.0 5.0 0.00 0.00 0.00 48 1009.3
20260506173005 71 110 1.0 3.0 0.00 0.00 0.00 45 1009.2
20260506172005 72 148 2.0 5.0 0.00 0.00 0.00 45 1009.1
20260506171005 73 203 2.0 7.0 0.00 0.00 0.00 42 1009.5
20260506170005 74 201 4.0 6.0 0.00 0.00 0.00 39 1009.5
20260506165005 74 185 4.0 6.0 0.00 0.00 0.00 38 1009.5
20260506164005 75 179 2.0 8.0 0.00 0.00 0.00 38 1009.5
20260506163005 76 170 5.0 10.0 0.00 0.00 0.00 34 1009.6
20260506162005 78 172 7.0 10.0 0.00 0.00 0.00 31 1009.6
20260506161005 79 145 3.0 4.0 0.00 0.00 0.00 29 1009.5
20260506143004 83 183 5.0 12.0 0.00 0.00 0.00 23 1009.7
20260506141005 85 136 3.0 8.0 0.00 0.00 0.00 22 1009.4
20260506140004 83 185 5.0 15.0 0.00 0.00 0.00 24 1009.6
20260506135004 83 166 8.0 13.0 0.00 0.00 0.00 23 1009.5
20260506134004 85 202 7.0 13.0 0.00 0.00 0.00 21 1009.8
20260506133005 85 192 5.0 13.0 0.00 0.00 0.00 22 1009.7
20260506132005 86 232 3.0 16.0 0.00 0.00 0.00 22 1009.5
20260506131004 88 227 5.0 13.0 0.00 0.00 0.00 19 1009.2
20260506130005 88 279 2.0 15.0 0.00 0.00 0.00 20 1009.3
20260506124005 86 349 5.0 12.0 0.00 0.00 0.00 20 1009.4
20260506123004 88 256 3.0 17.0 0.00 0.00 0.00 19 1009.5
20260506122004 87 69 3.0 15.0 0.00 0.00 0.00 20 1009.6
20260506121004 86 182 4.0 17.0 0.00 0.00 0.00 20 1009.5
20260506115004 86 254 8.0 14.0 0.00 0.00 0.00 20 1009.5
20260506114005 87 271 3.0 15.0 0.00 0.00 0.00 20 1009.5
20260506113005 86 245 8.0 14.0 0.00 0.00 0.00 20 1009.4
20260506110005 83 259 4.0 16.0 0.00 0.00 0.00 22 1009.4
20260506105005 83 290 4.0 13.0 0.00 0.00 0.00 22 1009.6
20260506103005 83 201 7.0 25.0 0.00 0.00 0.00 22 1009.4
20260506101005 83 196 8.0 18.0 0.00 0.00 0.00 22 1009.4